Location: Dana
(41.8364°N, 106.7042°W)
Time: 02:18:29
(UTC+00:00)

Explorer 7 - Visible Passes

Search period start: 14 May 2026 00:00
Search period end: 24 May 2026 00:00
Orbit: 427 x 536 km, 50.2° (Epoch: 13 May)

Date Brightness Start Highest point End Pass type
(mag) Time Alt. Az. Time Alt. Az. Time Alt. Az.
15 May 8.2 11:03:37 10° SSW 11:06:32 25° SE 11:09:33 10° E visible
16 May 8.2 10:36:12 11° S 10:38:50 23° SE 10:41:43 10° E visible
17 May 8.3 10:09:37 16° SSE 10:11:09 21° SE 10:13:52 10° E visible
18 May 8.3 09:42:58 18° SE 09:43:26 19° SE 09:46:00 10° E visible
19 May 8.6 09:16:14 17° ESE 09:16:14 17° ESE 09:18:05 10° E visible
19 May 6.6 10:50:27 12° WSW 10:53:37 69° NNW 10:57:13 10° NE visible
20 May 9.0 08:49:27 13° ESE 08:49:27 13° ESE 08:50:08 10° E visible
20 May 6.4 10:23:40 21° WSW 10:25:51 74° NNW 10:29:26 10° NE visible
21 May 6.3 09:56:48 37° WSW 09:58:04 80° NNW 10:01:39 10° ENE visible
22 May 6.2 09:29:54 69° WSW 09:30:17 87° NNW 09:33:50 10° ENE visible
22 May 8.3 11:05:57 10° WNW 11:08:56 25° NNW 11:12:01 10° NE visible
23 May 6.6 09:02:56 66° ENE 09:02:56 66° ENE 09:06:02 10° ENE visible
23 May 8.3 10:38:06 10° WNW 10:41:06 26° NNW 10:44:12 10° NE visible
